Branson, MO

10:00 PM CDT on May 25, 2018 (GMT -0500)
Branson

Weather History for KBBG - October, 2013

Change the Weather History Date:

Sunday, October 6, 2013

  Actual Average (KHRO) Record (KHRO)
Temperature  
Mean Temperature 52 °F -  
Max Temperature 59 °F 71 °F 92 °F (1956)
Min Temperature 46 °F 50 °F 32 °F (1964)
Degree Days  
Heating Degree Days 12    
Growing Degree Days 2 (Base 50)    
Moisture  
Dew Point 49 °F    
Average Humidity 92    
Maximum Humidity 100    
Minimum Humidity 55    
Precipitation  
Precipitation 0.00 in - - ()
Sea Level Pressure  
Sea Level Pressure 29.98 in    
Wind  
Wind Speed 4 mph (West)    
Max Wind Speed 14 mph    
Max Gust Speed 22 mph    
Visibility 10 miles    
Events      
Averages and records for this station are not official NWS values.
T = Trace of Precipitation, MM = Missing Value Source: NWS Daily Summary

Daily Weather History Graph

Daily Weather History Graph

Search for Another Location

Airport or City:

Astronomy

Oct. 06, 2013 Rise Set
Actual Time 7:12 AM CDT 6:48 PM CDT
Civil Twilight 6:46 AM CDT 7:14 PM CDT
Nautical Twilight 6:16 AM CDT 7:44 PM CDT
Astronomical Twilight 5:46 AM CDT 8:14 PM CDT
Moon 8:53 AM CDT (10/6) 7:52 PM CDT (10/6)
Length of Visible Light 12h 27m
Length of Day
11h 36m
Waxing Crescent, 3% of the Moon is Illuminated
Oct 6
Waxing Crescent
Oct 11
First Quarter
Oct 18
Full
Oct 26
Last Quarter
Nov 3
New

Hourly Weather History & Observations

Time (CDT) Temp. Windchill Dew Point Humidity Pressure Visibility Wind Dir Wind Speed Gust Speed Precip Events Conditions
12:15 AM 48.2 °F - 48.2 °F 100% 30.00 in 10.0 mi Calm Calm - N/A   Partly Cloudy
12:35 AM 48.2 °F - 48.2 °F 100% 30.00 in 10.0 mi WSW 3.5 mph - N/A   Mostly Cloudy
12:55 AM 48.2 °F - 48.2 °F 100% 29.99 in 10.0 mi WSW 4.6 mph - N/A   Mostly Cloudy
1:15 AM 48.2 °F - 48.2 °F 100% 29.98 in 10.0 mi WSW 5.8 mph - N/A   Mostly Cloudy
1:35 AM 48.2 °F - 48.2 °F 100% 29.98 in 10.0 mi WSW 3.5 mph - N/A   Partly Cloudy
1:55 AM 48.2 °F - 48.2 °F 100% 29.98 in 10.0 mi WSW 3.5 mph - N/A   Clear
2:15 AM 48.2 °F - 48.2 °F 100% 29.97 in 10.0 mi Calm Calm - N/A   Clear
2:35 AM 48.2 °F - 48.2 °F 100% 29.96 in 10.0 mi Calm Calm - N/A   Clear
2:55 AM 48.2 °F - 48.2 °F 100% 29.95 in 10.0 mi West 3.5 mph - N/A   Clear
3:15 AM 48.2 °F - 48.2 °F 100% 29.94 in 10.0 mi West 4.6 mph - N/A   Clear
3:35 AM 48.2 °F - 48.2 °F 100% 29.94 in 10.0 mi West 5.8 mph - N/A   Clear
3:55 AM 48.2 °F - 48.2 °F 100% 29.94 in 10.0 mi West 6.9 mph - N/A   Clear
4:15 AM 48.2 °F - 48.2 °F 100% 29.95 in 10.0 mi Calm Calm - N/A   Clear
4:35 AM 48.2 °F - 48.2 °F 100% 29.96 in 10.0 mi West 3.5 mph - N/A   Clear
4:55 AM 48.2 °F - 48.2 °F 100% 29.97 in 10.0 mi West 3.5 mph - N/A   Clear
5:15 AM 48.2 °F - 48.2 °F 100% 29.96 in 10.0 mi Calm Calm - N/A   Clear
5:35 AM 48.2 °F - 48.2 °F 100% 29.96 in 10.0 mi Calm Calm - N/A   Clear
5:55 AM 46.4 °F - 46.4 °F 100% 29.96 in 10.0 mi Calm Calm - N/A   Clear
6:15 AM 46.4 °F - 46.4 °F 100% 29.96 in 10.0 mi Calm Calm - N/A   Clear
6:35 AM 46.4 °F - 46.4 °F 100% 29.97 in 10.0 mi Calm Calm - N/A   Clear
6:45 AM 46.4 °F - 46.4 °F 100% 29.97 in 10.0 mi Calm Calm - N/A   Clear
7:45 AM 46.4 °F 42.4 °F 46.4 °F 100% 29.97 in 10.0 mi WSW 8.1 mph - N/A   Clear
8:45 AM 48.2 °F - 48.2 °F 100% 29.98 in 10.0 mi Calm Calm - N/A   Clear
9:45 AM 50.0 °F - 50.0 °F 100% 29.99 in 10.0 mi West 8.1 mph - N/A   Clear
10:50 AM 53.6 °F - 53.6 °F 100% 29.99 in 10.0 mi West 6.9 mph - N/A   Partly Cloudy
11:46 AM 53.6 °F - 41.0 °F 62% 30.00 in 10.0 mi WNW 12.7 mph 19.6 mph N/A   Scattered Clouds
12:50 PM 57.2 °F - 41.0 °F 55% 29.99 in 10.0 mi WNW 13.8 mph 20.7 mph N/A   Scattered Clouds
1:45 PM 57.2 °F - 57.2 °F 100% 29.97 in 10.0 mi WNW 11.5 mph 17.3 mph N/A   Scattered Clouds
2:45 PM 57.2 °F - 41.0 °F 55% 29.96 in 10.0 mi WNW 12.7 mph 17.3 mph N/A   Mostly Cloudy
3:45 PM 57.2 °F - 41.0 °F 55% 29.97 in 10.0 mi SSW 8.1 mph 17.3 mph N/A   Mostly Cloudy
4:46 PM 57.2 °F - 42.8 °F 59% 29.97 in 10.0 mi West 11.5 mph 21.9 mph N/A   Mostly Cloudy
5:50 PM 59.0 °F - 42.8 °F 55% 29.98 in 10.0 mi West 11.5 mph - N/A   Scattered Clouds
6:51 PM 55.4 °F - 44.6 °F 67% 29.98 in 10.0 mi West 6.9 mph - N/A   Clear
7:47 PM 53.6 °F - 44.6 °F 72% 29.99 in 10.0 mi West 4.6 mph - N/A   Clear
8:48 PM 53.6 °F - 44.6 °F 72% 30.00 in 10.0 mi WSW 5.8 mph - N/A   Clear
9:15 PM 53.6 °F - 53.6 °F 100% 30.00 in 10.0 mi West 4.6 mph - N/A   Scattered Clouds
9:35 PM 53.6 °F - 53.6 °F 100% 30.01 in 10.0 mi WSW 4.6 mph - N/A   Mostly Cloudy
9:55 PM 53.6 °F - 53.6 °F 100% 30.01 in 10.0 mi West 4.6 mph - N/A   Overcast
10:15 PM 53.6 °F - 53.6 °F 100% 30.02 in 10.0 mi WSW 5.8 mph - N/A   Overcast
10:35 PM 55.4 °F - 55.4 °F 100% 30.02 in 10.0 mi West 4.6 mph - N/A   Overcast
10:55 PM 55.4 °F - 55.4 °F 100% 30.02 in 10.0 mi West 6.9 mph - N/A   Overcast
11:15 PM 55.4 °F - 55.4 °F 100% 30.02 in 10.0 mi WNW 6.9 mph - N/A   Overcast
11:35 PM 55.4 °F - 55.4 °F 100% 30.03 in 10.0 mi WNW 6.9 mph - N/A   Mostly Cloudy
11:55 PM 55.4 °F - 55.4 °F 100% 30.03 in 10.0 mi NW 8.1 mph - N/A   Partly Cloudy